(149111) = 2002 CJ219

Discovered at Socorro on 2002-02-10 by LINEAR.

Orbit

Orbit type: Main Belt

Note: WebGL enabled browser required.

epoch2024-03-31.0
epoch JD2460400.5
perihelion date2019-05-19.91774
perihelion JD2458623.41774
argument of perihelion (°)189.77010
ascending node (°)14.05015
inclination (°)5.48626
eccentricity0.0859370
perihelion distance (AU)2.8616737
Tisserand w.r.t. Jupiter3.2
ΔV w.r.t. Earth (km/sec)10.6
semimajor axis (AU)3.1307181
mean anomaly (°)316.18803
mean daily motion (°/day)0.17792540
aphelion distance (AU)3.400
period (years)5.54
P-vector [x]-0.91500572
P-vector [y]-0.36339677
P-vector [z]-0.17523502
Q-vector [x]0.40277263
Q-vector [y]-0.79783149
Q-vector [z]-0.44859684
absolute magnitude15.32
phase slope0.15
uncertainty0
referenceMPEC 2024-F28
observations used579
oppositions18
arc length (days)23186
first opposition used1960
last opposition used2024
residual rms (arc-secs)0.77
perturbers coarse indicatorM-v
perturbers precise indicator003Ek
first observation date used1960-09-24.0
last observation date used2024-03-18.0
computer nameMPCLINUX
JD of orbit computation2456847.609963
perihelion JD uncertainty (days)1.6816E-04
argument of perihelion uncertainty (°)5.9104E-05
ascending node uncertainty (°)5.0450E-05
inclination uncertainty (°)6.4236E-06
eccentricity uncertainty 6.5254E-08
perihelion distance uncertainty (AU)2.0363E-07
Minimum Orbit Intersection Distances (in AU)
for orbit epoch: 2460400.5, reference: E2024-F28
Mercury2.42467
Venus2.14181
Earth1.85847
Mars1.22836
Jupiter1.55793
Saturn5.78793
Uranus15.5073
Neptune26.4309

Observations

585 total observations over interval: 1960 09 24.38750 – 2024 03 18.123970
These data are available for download (format description).

Date (UT) J2000 RA J2000 Dec Magn Location Ref
1960 09 24.38750 00 21 10.44 +00 34 20.9 19.9   675 – Palomar Mountain MPS 285478
1960 09 24.41180 00 21 09.27 +00 34 16.1 19.7   675 – Palomar Mountain MPS 285478
1960 09 26.31528 00 19 42.84 +00 27 23.0 20.2   675 – Palomar Mountain MPS 285478
1960 09 26.33541 00 19 41.97 +00 27 18.9 20.4   675 – Palomar Mountain MPS 285478
1960 09 27.37500 00 18 54.50 +00 23 33.6 19.7 V 675 – Palomar Mountain MPS 285478
1960 09 27.40833 00 18 52.94 +00 23 26.9 20.5 V 675 – Palomar Mountain MPS 285478
1960 09 28.37778 00 18 08.91 +00 19 57.7 20.3   675 – Palomar Mountain MPS 285478
1960 09 28.39722 00 18 08.00 +00 19 53.2 20.9   675 – Palomar Mountain MPS 285478
2002 01 14.39661 11 46 59.37 +05 55 48.8 20.2 V 333 – Desert Eagle Observatory MPS 55576
2002 01 14.43994 11 46 59.65 +05 55 47.9 20.5 V 333 – Desert Eagle Observatory MPS 55576
2002 01 14.47576 11 46 59.87 +05 55 45.3 20.6 V 333 – Desert Eagle Observatory MPS 55576
2002 02 10.38595 11 42 14.99 +06 23 05.1 19.2   704 – Lincoln Laboratory ETS, New Mexico MPS 50404
2002 02 10.40021 11 42 14.59 +06 23 07.1 19.7   704 – Lincoln Laboratory ETS, New Mexico MPS 50404
2002 02 10.41447 11 42 14.13 +06 23 09.1 19.7   704 – Lincoln Laboratory ETS, New Mexico MPS 50404
2002 02 10.42877 11 42 13.71 +06 23 12.1 19.9   704 – Lincoln Laboratory ETS, New Mexico MPS 50404
2002 02 12.44823 11 41 13.44 +06 28 31.8 19.4   704 – Lincoln Laboratory ETS, New Mexico MPS 50404
2002 02 12.46245 11 41 12.93 +06 28 33.8 19.6   704 – Lincoln Laboratory ETS, New Mexico MPS 50404
2002 02 12.47668 11 41 12.54 +06 28 35.7 19.2   704 – Lincoln Laboratory ETS, New Mexico MPS 50404
2002 02 12.49088 11 41 12.06 +06 28 37.5 19.5   704 – Lincoln Laboratory ETS, New Mexico MPS 50404
2002 02 12.50511 11 41 11.61 +06 28 40.8 20.4   704 – Lincoln Laboratory ETS, New Mexico MPS 50404
2002 02 20.30497 11 36 35.86 +06 52 19.1 19.5   704 – Lincoln Laboratory ETS, New Mexico MPS 52747
2002 02 20.31885 11 36 35.28 +06 52 22.7 19.8   704 – Lincoln Laboratory ETS, New Mexico MPS 52747
2002 02 20.33270 11 36 34.79 +06 52 25.8 19.9   704 – Lincoln Laboratory ETS, New Mexico MPS 52747
2002 02 20.34665 11 36 34.13 +06 52 27.5 20.0   704 – Lincoln Laboratory ETS, New Mexico MPS 52747
2002 02 20.36104 11 36 33.55 +06 52 30.8 19.6   704 – Lincoln Laboratory ETS, New Mexico MPS 52747
2002 03 05.243870 11 27 05.812 +07 37 30.17 19.24 V 645 – Apache Point-Sloan Digital Sky Survey MPS 80068
2002 03 05.247342 11 27 05.638 +07 37 30.91 19.91   645 – Apache Point-Sloan Digital Sky Survey MPS 80068
2002 03 09.29004 11 23 51.34 +07 51 46.9 18.7   644 – Palomar Mountain/NEAT MPS 55576
2002 03 09.29217 11 23 51.11 +07 51 46.5 18.4   704 – Lincoln Laboratory ETS, New Mexico MPS 55576
2002 03 09.31219 11 23 50.14 +07 51 50.1 18.9   704 – Lincoln Laboratory ETS, New Mexico MPS 55576
2002 03 09.37174 11 23 47.14 +07 52 03.6 19.5   704 – Lincoln Laboratory ETS, New Mexico MPS 55576
2002 03 09.37267 11 23 47.21 +07 52 04.2 18.8   644 – Palomar Mountain/NEAT MPS 55576
2002 03 09.43713 11 23 43.99 +07 52 17.5 19.3   644 – Palomar Mountain/NEAT MPS 55576
2002 03 12.31388 11 21 24.58 +08 02 06.2 19.0   704 – Lincoln Laboratory ETS, New Mexico MPS 55576
2002 03 12.33272 11 21 23.68 +08 02 10.8 19.1   704 – Lincoln Laboratory ETS, New Mexico MPS 55576
2002 03 12.35147 11 21 22.63 +08 02 14.3 19.0   704 – Lincoln Laboratory ETS, New Mexico MPS 55576
2002 03 14.24915 11 19 50.94 +08 08 30.8 19.0   704 – Lincoln Laboratory ETS, New Mexico MPS 55576
2002 03 14.26287 11 19 50.29 +08 08 33.9 19.0   704 – Lincoln Laboratory ETS, New Mexico MPS 55576
2002 03 14.29137 11 19 48.88 +08 08 39.8 19.2   704 – Lincoln Laboratory ETS, New Mexico MPS 55576
2002 03 15.25194 11 19 02.62 +08 11 44.6 18.8   704 – Lincoln Laboratory ETS, New Mexico MPS 55576
2002 03 15.25647 11 19 02.43 +08 11 46.4 20.1 V 691 – Steward Observatory, Kitt Peak-Spacewatch MPS 55576
2002 03 15.26534 11 19 02.01 +08 11 47.3 19.3   704 – Lincoln Laboratory ETS, New Mexico MPS 55576
2002 03 15.27871 11 19 01.36 +08 11 50.6 20.0 V 691 – Steward Observatory, Kitt Peak-Spacewatch MPS 55576
2002 03 15.27901 11 19 01.32 +08 11 50.0 19.7   704 – Lincoln Laboratory ETS, New Mexico MPS 55576
2002 03 15.29195 11 19 00.62 +08 11 52.5 19.1   704 – Lincoln Laboratory ETS, New Mexico MPS 55576
2002 03 15.29999 11 19 00.29 +08 11 54.8 19.7 V 691 – Steward Observatory, Kitt Peak-Spacewatch MPS 55576
2002 03 16.24359 11 18 15.06 +08 14 54.3 18.9   704 – Lincoln Laboratory ETS, New Mexico MPS 55576
2002 03 16.25700 11 18 14.40 +08 14 57.0 19.2   704 – Lincoln Laboratory ETS, New Mexico MPS 55576
2002 03 16.27042 11 18 13.73 +08 14 59.7 19.0   704 – Lincoln Laboratory ETS, New Mexico MPS 55576
2002 03 16.28387 11 18 13.09 +08 15 02.3 19.2   704 – Lincoln Laboratory ETS, New Mexico MPS 55576
2002 03 16.29734 11 18 12.43 +08 15 04.5 19.0   704 – Lincoln Laboratory ETS, New Mexico MPS 55576
2002 03 16.30710 11 18 11.96 +08 15 06.6 19.1   704 – Lincoln Laboratory ETS, New Mexico MPS 55576
2002 03 16.32081 11 18 11.33 +08 15 07.3 19.5   704 – Lincoln Laboratory ETS, New Mexico MPS 55576
2002 03 16.34797 11 18 09.97 +08 15 13.3 19.4   704 – Lincoln Laboratory ETS, New Mexico MPS 55576
2002 03 16.36247 11 18 09.20 +08 15 16.0 18.9   704 – Lincoln Laboratory ETS, New Mexico MPS 55576
2002 03 19.21571 11 15 54.50 +08 23 51.4 18.6 R 699 – Lowell Observatory-LONEOS MPS 52747
2002 03 19.22822 11 15 53.91 +08 23 53.7   699 – Lowell Observatory-LONEOS MPS 52747
2002 03 19.24075 11 15 53.37 +08 23 57.1   699 – Lowell Observatory-LONEOS MPS 52748
2002 03 19.25329 11 15 52.72 +08 23 57.6   699 – Lowell Observatory-LONEOS MPS 52748
2002 03 20.29921 11 15 04.05 +08 26 58.8 19.1   704 – Lincoln Laboratory ETS, New Mexico MPS 52748
2002 03 20.31173 11 15 03.40 +08 27 01.6 19.9   704 – Lincoln Laboratory ETS, New Mexico MPS 52748
2002 03 20.32425 11 15 02.92 +08 27 04.3 19.8   704 – Lincoln Laboratory ETS, New Mexico MPS 52748
2002 03 20.33740 11 15 02.30 +08 27 04.7 20.0   704 – Lincoln Laboratory ETS, New Mexico MPS 52748
2004 08 15.27903 22 58 27.69 -11 51 38.7 19.0 R 807 – Cerro Tololo Observatory, La Serena MPS 139279
2004 08 15.37092 22 58 23.88 -11 51 58.4   807 – Cerro Tololo Observatory, La Serena MPS 139279
2004 09 09.24072 22 39 50.03 -13 18 06.1 19.6   704 – Lincoln Laboratory ETS, New Mexico MPS 139279
2004 09 09.25212 22 39 49.48 -13 18 08.2 20.0   704 – Lincoln Laboratory ETS, New Mexico MPS 139279
2004 09 09.26352 22 39 49.03 -13 18 09.3 20.3   704 – Lincoln Laboratory ETS, New Mexico MPS 139279
2004 09 09.27492 22 39 48.48 -13 18 10.3 19.9   704 – Lincoln Laboratory ETS, New Mexico MPS 139279
2005 10 26.21759 02 55 25.51 +20 33 44.8 20.3 V 691 – Steward Observatory, Kitt Peak-Spacewatch MPS 146002
2005 10 26.23494 02 55 24.67 +20 33 43.1 20.2 V 691 – Steward Observatory, Kitt Peak-Spacewatch MPS 146002
2005 10 26.25229 02 55 23.83 +20 33 41.1 20.1 V 691 – Steward Observatory, Kitt Peak-Spacewatch MPS 146002
2005 10 27.25241 02 54 35.87 +20 31 47.6 20.1 V 691 – Steward Observatory, Kitt Peak-Spacewatch MPS 146002
2005 10 27.26976 02 54 35.00 +20 31 45.5 20.0 V 691 – Steward Observatory, Kitt Peak-Spacewatch MPS 146002
2005 10 27.28704 02 54 34.16 +20 31 43.5 20.2 V 691 – Steward Observatory, Kitt Peak-Spacewatch MPS 146002
2005 11 05.22320 02 47 09.27 +20 11 46.8 19.6 R 699 – Lowell Observatory-LONEOS MPS 149424
2005 11 05.25061 02 47 07.79 +20 11 42.6   699 – Lowell Observatory-LONEOS MPS 149424
2005 11 05.27803 02 47 06.39 +20 11 38.3   699 – Lowell Observatory-LONEOS MPS 149424
2005 11 05.30543 02 47 05.13 +20 11 34.8   699 – Lowell Observatory-LONEOS MPS 149424
2005 11 07.25969 02 45 26.16 +20 06 35.4 19.6   704 – Lincoln Laboratory ETS, New Mexico MPS 149424
2005 11 07.27200 02 45 25.45 +20 06 33.3 19.7   704 – Lincoln Laboratory ETS, New Mexico MPS 149424
2005 11 07.28421 02 45 24.81 +20 06 31.1 19.8   704 – Lincoln Laboratory ETS, New Mexico MPS 149424
2005 11 07.29643 02 45 24.20 +20 06 29.1 20.0   704 – Lincoln Laboratory ETS, New Mexico MPS 149424
2005 12 02.29823 02 26 38.97 +18 57 34.6 19.6 V 703 – Catalina Sky Survey MPS 153616
2005 12 02.30749 02 26 38.54 +18 57 33.1 19.9 V 703 – Catalina Sky Survey MPS 153616
